GW0092 Weather Reports


Display with metric or nautical units.
time (UTC)temp
F
wind
direction
speed
MPH
gust
MPH
rain 1hr
in
rain 24hr
in
rain mn
in
humidity
%
barometer
mb
20260507063053 64 315 1.0 5.0 0.06 0.08 0.06 97 1008.8
20260507061554 65 323 2.0 11.0 0.06 0.08 0.06 96 1008.7
20260507060101 64 13 2.0 6.0 0.00 0.02 0.00 95 1009.1
20260507054557 63 358 1.0 6.0 0.00 0.02 0.00 96 1009.0
20260507053052 61 0 0.0 0.0 0.00 0.02 0.00 98 1009.0
20260507051553 61 0 0.0 0.0 0.00 0.02 0.00 97 1009.5
20260507050050 61 0 0.0 0.0 0.00 0.02 0.00 98 1009.6
20260507044605 61 0 0.0 0.0 0.00 0.02 0.00 97 1009.9
20260507043104 60 0 0.0 0.0 0.00 0.02 0.00 97 1009.9
20260507041559 61 0 0.0 0.0 0.00 0.02 0.00 97 1009.7
20260507040057 61 0 0.0 0.0 0.00 0.02 0.00 97 1009.4
20260507034555 61 0 0.0 0.0 0.00 0.02 0.02 97 1009.3
20260507033055 61 0 0.0 0.0 0.00 0.02 0.02 97 1009.4
20260507031555 61 0 0.0 0.0 0.00 0.02 0.02 97 1009.4
20260507030055 62 0 0.0 0.0 0.00 0.02 0.02 97 1009.5
20260507024555 62 0 0.0 0.0 0.00 0.02 0.02 97 1009.8
20260507023108 62 0 0.0 0.0 0.00 0.02 0.02 96 1009.7
20260507021554 62 0 0.0 0.0 0.00 0.02 0.02 96 1010.0
20260507020100 62 0 0.0 0.0 0.00 0.02 0.02 96 1010.0
20260507014557 62 0 0.0 0.0 0.00 0.02 0.02 96 1010.2
20260507013052 62 0 0.0 0.0 0.00 0.02 0.02 96 1010.1
20260507011601 63 0 0.0 0.0 0.00 0.02 0.02 95 1010.0
20260507010058 63 0 0.0 0.0 0.00 0.02 0.02 95 1010.1
20260507004550 63 0 0.0 0.0 0.00 0.02 0.02 94 1010.0
20260507003111 64 0 0.0 0.0 0.00 0.02 0.02 94 1009.8
20260507001612 64 0 0.0 0.0 0.00 0.02 0.02 93 1009.7
20260507000058 65 131 1.0 2.0 0.00 0.02 0.02 93 1009.4
20260506234555 65 145 0.0 1.0 0.00 0.02 0.02 92 1009.6
20260506233055 65 120 1.0 1.0 0.00 0.02 0.02 91 1009.4
20260506231604 66 0 0.0 2.0 0.00 0.02 0.02 90 1009.4
20260506230113 67 123 1.0 3.0 0.00 0.02 0.02 90 1009.5
20260506224553 67 114 1.0 2.0 0.00 0.02 0.02 89 1009.5
20260506223054 68 141 1.0 3.0 0.00 0.02 0.02 88 1009.6
20260506221606 68 131 1.0 2.0 0.00 0.02 0.02 89 1009.6
20260506220056 67 120 0.0 2.0 0.00 0.02 0.02 89 1009.5
20260506214554 67 0 1.0 3.0 0.00 0.02 0.02 89 1009.9
20260506213106 67 150 1.0 2.0 0.00 0.02 0.02 89 1009.5
20260506211555 67 112 1.0 4.0 0.00 0.02 0.02 88 1009.6
20260506210104 67 112 1.0 2.0 0.00 0.02 0.02 89 1009.3
20260506204602 67 112 1.0 5.0 0.00 0.02 0.02 89 1009.6
20260506203121 67 131 0.0 4.0 0.00 0.02 0.02 89 1009.6
20260506201556 67 115 1.0 5.0 0.00 0.02 0.02 89 1009.8
20260506200057 67 117 1.0 4.0 0.00 0.02 0.02 89 1009.7
20260506194600 67 136 2.0 6.0 0.00 0.02 0.02 89 1010.0
20260506193104 67 65 2.0 5.0 0.00 0.02 0.02 90 1010.2
20260506191553 67 89 2.0 4.0 0.00 0.02 0.02 91 1010.9
20260506190056 66 106 2.0 5.0 0.00 0.02 0.02 92 1010.8
20260506184554 66 134 2.0 8.0 0.00 0.02 0.02 91 1010.9
20260506183105 66 141 1.0 6.0 0.01 0.02 0.02 92 1011.1
20260506181556 67 138 1.0 7.0 0.02 0.02 0.02 93 1011.0
20260506180058 66 82 2.0 7.0 0.02 0.02 0.02 95 1011.3
20260506174556 65 138 1.0 6.0 0.02 0.02 0.02 95 1011.3
20260506173059 65 147 1.0 5.0 0.01 0.01 0.01 92 1011.6
20260506171550 66 139 2.0 10.0 0.00 0.00 0.00 91 1011.9
20260506170057 66 169 1.0 3.0 0.00 0.00 0.00 90 1011.9
20260506164606 67 124 1.0 5.0 0.00 0.00 0.00 89 1012.6
20260506163101 67 74 2.0 8.0 0.00 0.00 0.00 88 1012.8
20260506161555 67 97 2.0 8.0 0.00 0.00 0.00 86 1012.9
20260506160057 68 82 2.0 10.0 0.00 0.00 0.00 85 1012.9
20260506154554 68 151 3.0 13.0 0.00 0.00 0.00 86 1013.0
20260506153053 68 161 3.0 8.0 0.00 0.00 0.00 84 1013.1
20260506151600 67 124 2.0 8.0 0.00 0.00 0.00 85 1013.1
20260506144555 68 184 2.0 9.0 0.00 0.00 0.00 84 1013.2
20260506143053 69 139 2.0 10.0 0.00 0.00 0.00 82 1013.3
20260506141552 69 86 2.0 7.0 0.00 0.00 0.00 84 1013.0
20260506140052 68 151 2.0 5.0 0.00 0.00 0.00 85 1013.2
20260506134552 67 112 3.0 6.0 0.00 0.00 0.00 85 1013.3
20260506133109 66 136 2.0 9.0 0.00 0.00 0.00 87 1013.3
20260506131608 65 140 3.0 10.0 0.00 0.00 0.00 88 1013.5
20260506130053 65 103 2.0 10.0 0.00 0.00 0.00 89 1013.5
20260506124552 64 162 2.0 5.0 0.00 0.00 0.00 90 1013.6
20260506123052 63 118 2.0 5.0 0.00 0.00 0.00 91 1013.6
20260506121557 63 179 2.0 8.0 0.00 0.00 0.00 91 1013.6
20260506120103 62 156 2.0 7.0 0.00 0.00 0.00 92 1013.5
20260506114553 62 108 2.0 8.0 0.00 0.00 0.00 92 1013.6
20260506113058 62 116 2.0 5.0 0.00 0.00 0.00 92 1013.4
20260506111557 61 140 2.0 7.0 0.00 0.00 0.00 93 1013.4
20260506110101 61 0 1.0 5.0 0.00 0.00 0.00 94 1013.5
20260506104608 60 167 2.0 13.0 0.00 0.00 0.00 94 1013.5
20260506103052 60 122 1.0 4.0 0.00 0.00 0.00 94 1013.4
20260506101552 60 172 1.0 6.0 0.00 0.00 0.00 95 1013.5
20260506094600 60 166 2.0 5.0 0.00 0.00 0.00 95 1013.5
20260506093052 60 179 1.0 3.0 0.00 0.00 0.00 94 1013.5
20260506091549 60 108 1.0 6.0 0.00 0.00 0.00 94 1013.4
20260506090053 60 129 1.0 5.0 0.00 0.00 0.00 94 1013.5
20260506084618 60 131 1.0 3.0 0.00 0.00 0.00 94 1013.6
20260506083053 60 162 1.0 3.0 0.00 0.00 0.00 94 1013.8
20260506081557 60 43 1.0 3.0 0.00 0.00 0.00 93 1013.8
20260506080312 60 129 1.0 3.0 0.00 0.00 0.00 93 1013.6
20260506073058 61 158 2.0 4.0 0.00 0.00 0.00 93 1013.7
20260506071558 61 144 2.0 6.0 0.00 0.00 0.00 92 1013.6